Regional Weather Roundup
Issued by NWS

Home | Current Version | Previous Version | Graphics & Text | Print | Product List | Glossary On
Versions: 1 2 3 4 5 6 7 8 9 10 11 12 13 14 15 16 17 18 19 20 21 22 23 24 25 26 27 28 29 30 31 32 33 34 35 36 37 38 39 40 41 42 43 44 45 46 47 48 49 50
000
ASUS43 KLOT 270908
RWRIL

ILLINOIS REGIONAL WEATHER ROUNDUP
NATIONAL WEATHER SERVICE CHICAGO/ROMEOVILLE IL
400 AM CDT MON MAR 27 2017

NOTE: "FAIR" INDICATES FEW OR NO CLOUDS BELOW 12,000 FEET WITH NO
SIGNIFICANT WEATHER AND/OR OBSTRUCTIONS TO VISIBILITY.

* THESE STATIONS ARE NOT UNDER NWS QUALITY CONTROL. THEY ALSO MAY NOT
  REPORT WEATHER SUCH AS PRECIPITATION OR FOG.

ILZ001-002-007-009-015-016-024-271000-
NORTHWEST ILLINOIS

CITY           SKY/WX    TMP DP  RH WIND       PRES   REMARKS
MOLINE         CLOUDY    48  45  89 SW5       29.91F FOG
STERLING*      CLOUDY    47  46  97 W6        29.91F
SAVANNA*       CLOUDY    46  44  94 W3        29.91F
$$

ILZ003-004-008-010-011-017-018-271000-
NORTH CENTRAL ILLINOIS

CITY           SKY/WX    TMP DP  RH WIND       PRES   REMARKS
ROCKFORD       CLOUDY    46  44  93 CALM      29.92R FOG
FREEPORT*      CLOUDY    44  43  98 CALM      29.92S FOG
ROCHELLE*      CLOUDY    47  46  98 W5        29.91S FOG
DE KALB*       FOG       47  46  99 NW3       29.90S VSB 1/2
PERU*          CLOUDY    47  46  95 W6        29.92S FOG
$$

ILZ005-006-012>014-019>023-271000-
NORTHEAST ILLINOIS

CITY           SKY/WX    TMP DP  RH WIND       PRES   REMARKS
CHICAGO-OHARE  CLOUDY    51  48  89 W5        29.88S
CHICAGO-MIDWAY CLOUDY    51  50  96 SW8       29.89F FOG
AURORA         CLOUDY    50  48  93 SW8       29.90S FOG
LANSING*       CLOUDY    50  50 100 SW7       29.91S FOG
JOLIET*        CLOUDY    50  49  97 SW8       29.92S FOG
WAUKEGAN       CLOUDY    45  45 100 NW5       29.89S FOG
DUPAGE AIRPORT CLOUDY    49  49 100 W8        29.88F FOG
KANKAKEE*      CLOUDY    49  48  97 SW5       29.93S
WHEELING       CLOUDY    49  49 100 NW3       29.90R FOG
MORRIS*        CLOUDY    49  47  95 CALM      29.91S FOG
ROMEOVILLE*    CLOUDY    48  48 100 W12       29.91S
$$

LMZ740>746-271000-
SOUTHERN LAKE MICHIGAN

STATION/POSITION SKY/WX   TEMP    WIND        PRES    VSBY  WAVE
                          AIR SEA DIR/SP/G                  HT/PER
                          (F)     (DEG/KT/KT) (MB)    (MI)  (FT/S)
HARRISON CRIB              47     350/  8/ 11   N/A
BURNHAM HARBOR             51     240/  5/  8   N/A
CALUMET HARBOR             51     230/  6/  8 1011.9F
BURNS HARBOR               50     230/ 11/ 12 1013.2S
MICHIGAN CITY              47     220/ 13/ 14   N/A
$$

ILZ025>027-034>036-040-047-049-050-058-095>099-271000-
WEST-CENTRAL ILLINOIS

CITY           SKY/WX    TMP DP  RH WIND       PRES   REMARKS
QUINCY         CLOUDY    45  44  97 NE6       29.87F
GALESBURG*     CLOUDY    44  44 100 CALM      29.90F FOG
MACOMB*        MOCLDY    46  45  99 CALM      29.92F FOG
JACKSONVILLE*  MOCLDY    45  45  97 CALM      29.90F FOG
PITTSFIELD*    CLOUDY    48  46  93 NE7       29.88F
$$

ILZ028>032-037-038-041>044-048-051>054-059>061-271000-
CENTRAL ILLINOIS

CITY           SKY/WX    TMP DP  RH WIND       PRES   REMARKS
PONTIAC        CLOUDY    50  49  97 SW5       29.93F
BLOOMINGTON    CLOUDY    48  46  93 CALM      29.93F
DECATUR        MOCLDY    46  44  93 NE5       29.92F
PEORIA         CLOUDY    49  47  93 CALM      29.91F
LACON*         CLOUDY    48  47  95 W5        29.91F FOG
LINCOLN*       CLOUDY    48  48 100 CALM      29.91F
SPRINGFIELD    PTCLDY    46  44  93 E5        29.90F
TAYLORVILLE    PTCLDY    45  45 100 NE5       29.90F
$$

ILZ033-039-045-046-055>057-062-063-271000-
EAST-CENTRAL ILLINOIS

CITY           SKY/WX    TMP DP  RH WIND       PRES   REMARKS
CHAMPAIGN      CLOUDY    49  46  90 NW3       29.93F
RANTOUL*       CLOUDY    50  49  97 CALM      29.94S FOG
MATTOON        CLEAR     46  46 100 NE3       29.91F FOG
PARIS*         MOCLDY    47  46  99 CALM      29.94F
$$

ILZ079-100>102-271000-
SOUTHWEST ILLINOIS

CITY           SKY/WX    TMP DP  RH WIND       PRES   REMARKS
ALTON          PTCLDY    47  46  99 CALM      29.90S FOG
BELLEVILLE     MOCLDY    47  47 100 NE5       29.87F
CAHOKIA*       MOCLDY    48  46  93 CALM      29.87F
SPARTA*        CLOUDY    49  47  92 E5        29.89F
$$

ILZ064>066-069>071-074>076-080>082-084>086-088>090-092>094-271000-
SOUTH-CENTRAL ILLINOIS

CITY           SKY/WX    TMP DP  RH WIND       PRES   REMARKS
CARBONDALE     PTCLDY    49  48  97 SE3       29.89F
CAIRO*         PTCLDY    52  51  94 E3        29.89F
EFFINGHAM*     CLEAR     44  44 100 CALM      29.93F FOG
MARION         PTCLDY    52  52 100 SE6       29.91S
MT. VERNON     CLOUDY    44  44 100 N3        29.91F
CENTRALIA*     CLOUDY    49  47  94 CALM      29.90F
SALEM*         MOCLDY    47  45  95 E3        29.91F FOG
METROPOLIS*    CLOUDY    50  49  97 E3        29.91F
$$

ILZ067-068-072-073-078-083-087-091-271000-
SOUTHEAST ILLINOIS

CITY           SKY/WX    TMP DP  RH WIND       PRES   REMARKS
LAWRENCEVILLE  PTCLDY    43  43 100 NE5       29.94F FOG
FLORA*         CLEAR     45  44  96 E3        29.92F
FAIRFIELD*     PTCLDY    46  46  99 CALM      29.91F
HARRISBURG*    CLOUDY    49  47  93 CALM      29.92F
ROBINSON*        N/A     41  41 100 CALM      29.95F FOG
CARMI*         CLOUDY    45  44  98 CALM      29.92F
$$

ABBREVIATIONS USED IN REMARKS
   TC - TEMPERATURE IN CELSIUS
  WCI - WIND CHILL INDEX
   HX - HEAT INDEX
  VSB - VISIBILITY
$$





USA.gov is the U.S. government's official web portal to all federal, state and local government web resources and services.